Regional Weather Roundup
Issued by NWS

Home | Current Version | Previous Version | Graphics & Text | Print | Product List | Glossary On
Versions: 1 2 3 4 5 6 7 8 9 10 11 12 13 14 15 16 17 18 19 20 21 22 23 24 25 26 27
000
ASUS45 KBOU 191407
RWRCO

WEATHER ROUNDUP FOR COLORADO
NATIONAL WEATHER SERVICE DENVER/BOULDER CO
800 AM MDT TUE SEP 19 2017

NOTE: "FAIR" INDICATES FEW OR NO CLOUDS BELOW 12000 FEET WITH NO
SIGNIFICANT WEATHER AND/OR OBSTRUCTIONS TO VISIBILITY.

COZ001>005-013-030-031-191500-
...NORTHWEST COLORADO...

CITY           SKY/WX    TMP DP  RH WIND       PRES   REMARKS
CRAIG          FAIR      63  20  19 SW23G29   29.82S
HAYDEN         FAIR      58  23  26 S6        29.87R
MEEKER         FAIR      60  22  23 SW9G17    29.87R
RABBIT EARS PA FAIR      43  19  39 SW14G28   30.05F
STEAMBOAT SPGS FAIR      44  29  57 CALM      29.87R
WALDEN         FAIR      45  21  39 S9        29.90F
$$

COZ006>008-011-191500-
...WEST CENTRAL VALLEYS...

CITY           SKY/WX    TMP DP  RH WIND       PRES   REMARKS
GRAND JUNCTION FAIR      63  24  22 SE14      29.85R
MONTROSE       FAIR      56  30  37 VRB6      29.96S
EAGLE          FAIR      62  17  17 W21G26    29.92S
RIFLE          FAIR      63  23  21 CALM      29.88R
DELTA          FAIR      58  27  30 MISG      29.93S
NUCLA          FAIR      61  19  20 S8        30.02R
$$

COZ017>023-064>068-191500-
...SOUTHWEST COLORADO...

CITY           SKY/WX    TMP DP  RH WIND       PRES   REMARKS
DURANGO        FAIR      40  30  67 E5        30.11S
CORTEZ         FAIR      44  30  57 VRB3      30.04F
PAGOSA SPRINGS FAIR      37  27  68 CALM      30.17S
TELLURIDE      FAIR      54  10  17 E9        30.13F
WOLF CREEK PAS FAIR      32  12  43 S23G36    30.31S WCI  19
$$

COZ009-010-012-014-032>034-037-058>063-191500-
...CENTRAL COLORADO...

CITY           SKY/WX    TMP DP  RH WIND       PRES   REMARKS
ASPEN          FAIR      51  21  30 S10       29.98S
BUENA VISTA    FAIR      41  25  53 CALM      29.99F
COPPER MTN     FAIR      45  -6  12 W18G37    30.16F
BERTHOUD PASS  FAIR      37  30  75 W37G62    30.14F
COTTONWOOD PAS FAIR      50  12  22 NE5       30.08F
GUNNISON       FAIR      32  28  85 S3        30.09F
KREMMLING      FAIR      63   9  12 W24G36    29.92R
LEADVILLE      FAIR      50  -1  12 SE9G22    30.06S
MONARCH PASS   FAIR      36  12  38 SW36G43   30.30F
SALIDA         FAIR      59  17  19 SW13G22   30.04F
SUNLIGHT       FAIR      37  16  41 SW16G49   30.13R
WILKERSON PASS FAIR      41  12  30 SW21G37   30.12F
$$

COZ069>075-191500-
...SAN LUIS VALLEY/SANGRE DE CRISTO MOUNTAINS...

CITY           SKY/WX    TMP DP  RH WIND       PRES   REMARKS
ALAMOSA        FAIR      48  22  35 S13       30.08R
DEL NORTE      FAIR      52  19  27 W14       30.08F
LA VETA PASS   FAIR      45  10  24 S31G48    30.23R
SAGUACHE       FAIR      36  30  80 NW5       30.09S
$$

COZ035-036-038>040-191500-
...NORTHERN COLORADO FRONT RANGE...

CITY           SKY/WX    TMP DP  RH WIND       PRES   REMARKS
DENVER INTL AP PTSUNNY   66  21  18 S14       29.74S
DMNS CITY PARK   N/A     64  25  22 SE8G15    29.73F
AURORA         PTSUNNY   65  22  19 S16       29.76F
FRONT RANGE AP CLOUDY    68  21  17 S13       29.76S
ERIE MUNI ARPT FAIR      51  32  48 CALM      29.77F
BOULDER MUN AP FAIR      52  34  50 CALM      29.72F
CENTENNIAL     PTSUNNY   65  22  19 S13       29.78S
BROOMFIELD     PTSUNNY   59  27  29 S5        29.76S
FORT COLLINS   FAIR      50  41  71 E5        29.72
LONGMONT       FAIR      50  41  71 CALM      29.73F
$$

COZ041-046-047-076>085-087-088-191500-
...PIKES PEAK/PALMER DIVIDE AND SOUTHERN FOOTHILLS...

CITY           SKY/WX    TMP DP  RH WIND       PRES   REMARKS
COLO. SPRINGS  PTSUNNY   66  22  18 S23       29.84F
A. F. ACADEMY  FAIR      53  25  34 CALM      29.85S
SCHRIEVER AFB  FAIR      64  21  19 SW14      29.85F
CHEYENNE MTN   NOT AVBL
ELLICOTT       NOT AVBL
FALCON         FAIR      61  18  18 W7        29.90S
FORT CARSON    FAIR      63  27  25 SE7       29.82F
LIMON            N/A    N/A N/A N/A MISG      29.79S
MONUMENT HILL  FAIR      61  21  21 W9        29.89F
CANON CITY     SUNNY     64  28  25 W7        29.82R
WALSENBURG     NOT AVBL
TRINIDAD       FAIR      68  24  19 SW18      29.88R
$$

COZ042>045-048>051-090-091-191500-
...NORTHEAST COLORADO...

CITY           SKY/WX    TMP DP  RH WIND       PRES   REMARKS
GREELEY ARPT   FAIR      48  42  80 W5        29.72S
AKRON          FAIR      64  29  26 SW15      29.70F
BURLINGTON     FAIR      56  47  71 SW9       29.73F
WRAY           FAIR      55  50  82 CALM      29.69F
YUMA           FAIR      54  32  43 CALM      29.67F
STERLING       FAIR      52  46  82 W6        29.67S
HOLYOKE        FAIR      59  54  82 S6        29.68R
FORT MORGAN    FAIR      56  36  48 CALM      29.70S
$$

COZ086-089-092>099-191500-
...SOUTHEAST COLORADO...

CITY           SKY/WX    TMP DP  RH WIND       PRES   REMARKS
PUEBLO         FAIR      54  38  54 NW6       29.78S
LA JUNTA       FAIR      66  30  26 SW18G26   29.76F
LAMAR          FAIR      54  44  69 SW5       29.73S
SPRINGFIELD    NOT AVBL
$$




USA.gov is the U.S. government's official web portal to all federal, state and local government web resources and services.